This demonstration page uses our WeatherBlox Daily Observations layout. Learn more.

Left ArrowRight Arrow

31.84235, -102.49876

Hourly Observations for March 20, 2015

Temp ( °F °C ) Dew Point ( °F °C ) Humidity (%) Winds ( mph kmh ) Pressure ( in mb ) Visibility ( mi km ) Precip ( " mm )
12:53 am 00:53 Cloudy 61 16.1 52 11.1 72 72 WNW 6 9 29.93 1014 10 16 0.00 0.00
1:46 am 01:46 Cloudy with Rain 57 13.9 54 12.2 90 90 NE 23 37 30.06 1018 5 8 0.01 0.25
1:53 am 01:53 Cloudy with Light Rain 56 13.3 54 12.2 93 93 NE 22 35 30.00 1016 4 6 0.01 0.25
2:00 am 02:00 Cloudy with Light Rain 56 13.3 54 12.2 93 93 NE 17 28 30.06 1018 2 3 0.00 0.03
2:18 am 02:18 Cloudy with Nearby Thunderstorms 53 11.7 51 10.6 93 93 NE 21 33 30.06 1018 1 1 0.00 0.03
2:41 am 02:41 Cloudy with Mist and Fog 51 10.6 49 9.4 92 92 NNE 20 31 30.09 1019 1 1 0.00 0.03
2:53 am 02:53 Cloudy with Light Rain 50 10 49 9.4 96 96 NE 16 26 30.04 1017 1 2 0.00 0.03
3:22 am 03:22 Cloudy with Mist and Fog 50 10 48 8.9 93 93 NNE 18 30 30.09 1019 3 5 0.00 0.03
3:34 am 03:34 Cloudy with Mist and Fog 49 9.4 47 8.3 93 93 NNE 20 31 30.09 1019 2 3 0.00 0.03
3:41 am 03:41 Cloudy with Mist and Fog 49 9.4 47 8.3 93 93 NNE 20 31 30.09 1019 2 2 0.00 0.03
3:53 am 03:53 Cloudy with Mist and Fog 48 8.9 47 8.3 96 96 NNE 22 35 30.02 1017 2 2 0.00 0.03
4:53 am 04:53 Cloudy with Light Rain 47 8.3 45 7.2 93 93 NE 21 33 30.04 1017 2 3 0.00 0.03
5:15 am 05:15 Cloudy with Mist and Fog 47 8.3 45 7.2 93 93 NNE 15 24 30.12 1020 2 3 0.00 0.03
5:33 am 05:33 Cloudy with Mist and Fog 46 7.8 45 7.2 96 96 NNE 15 24 30.12 1020 2 3 0.00 0.03
5:53 am 05:53 Cloudy with Mist and Fog 46 7.8 44 6.7 93 93 NNE 15 24 30.04 1017 3 4 0.00 0.03
6:08 am 06:08 Cloudy with Mist and Fog 46 7.8 44 6.7 93 93 NNE 20 31 30.12 1020 3 5 0.00 0.00
6:35 am 06:35 Cloudy with Nearby Thunderstorms 46 7.8 44 6.7 93 93 NNE 15 24 30.15 1021 5 8 0.00 0.00
6:53 am 06:53 Cloudy with Nearby Thunderstorms 46 7.8 44 6.7 93 93 NNE 16 26 30.07 1018 7 11 0.00 0.00
7:40 am 07:40 Cloudy with Thunderstorms 46 7.8 44 6.7 93 93 E 6 9 30.21 1023 3 5 0.04 1.02
7:53 am 07:53 Cloudy with Thunderstorms 46 7.8 44 6.7 93 93 NNE 12 19 30.13 1020 4 6 0.06 1.52
8:02 am 08:02 Cloudy with Thunderstorms 47 8.3 44 6.7 90 90 NE 8 13 30.21 1023 3 5 0.03 0.76
8:10 am 08:10 Cloudy with Rain 47 8.3 44 6.7 90 90 NNE 9 15 30.21 1023 3 5 0.06 1.52
8:49 am 08:49 Cloudy with Rain 46 8 45 7 93 93 N 8 13 30.24 1024 3 5 0.18 4.57
8:53 am 08:53 Cloudy with Rain 47 8.3 45 7.2 93 93 NNE 8 13 30.16 1021 3 4 0.19 4.83
9:01 am 09:01 Cloudy with Rain 47 8.3 45 7.2 93 93 NE 8 13 30.24 1024 2 3 0.02 0.51
9:14 am 09:14 Cloudy with Rain 47 8.3 44 6.7 90 90 N 10 17 30.24 1024 3 5 0.05 1.27
9:38 am 09:38 Cloudy with Light Rain 47 8.3 44 6.7 90 90 NNE 13 20 30.24 1024 3 5 0.09 2.29
9:53 am 09:53 Cloudy with Rain 47 8.3 44 6.7 90 90 NNE 17 28 30.14 1021 3 5 0.11 2.79
10:43 am 10:43 Cloudy with Light Rain 48 8.9 45 7.2 89 89 NNE 16 26 30.24 1024 6 10 0.02 0.51
10:53 am 10:53 Cloudy with Light Rain 48 8.9 45 7.2 89 89 NNE 16 26 30.17 1022 8 13 0.02 0.51
11:11 am 11:11 Cloudy with Light Rain 47 8.3 44 6.7 90 90 NE 16 26 30.24 1024 5 8 0.00 0.03
11:53 am 11:53 Cloudy with Light Rain 48 8.9 45 7.2 89 89 NE 16 26 30.19 1022 4 6 0.02 0.51
12:02 pm 12:02 Cloudy with Light Rain 48 8.9 45 7.2 89 89 ENE 20 31 30.24 1024 5 8 0.00 0.03
12:53 pm 12:53 Cloudy with Light Rain 48 8.9 45 7.2 89 89 NNE 13 20 30.19 1022 6 10 0.01 0.25
1:53 pm 13:53 Cloudy 49 9.4 45 7.2 86 86 NNE 12 19 30.19 1022 9 14 0.00 0.03
2:53 pm 14:53 Cloudy 50 10 46 7.8 86 86 N 9 15 30.19 1022 8 13 0.00 0.03
3:53 pm 15:53 Cloudy 50 10 46 7.8 86 86 N 7 11 30.17 1022 8 13 0.00 0.00
4:13 pm 16:13 Cloudy with Light Rain 51 10.6 46 7.8 83 83 N 6 9 30.18 1022 5 8 0.01 0.25
4:23 pm 16:23 Cloudy with Light Rain 51 10.6 47 8.3 86 86 N 8 13 30.18 1022 5 8 0.01 0.25
4:31 pm 16:31 Cloudy with Light Rain 51 10.6 47 8.3 86 86 N 6 9 30.18 1022 7 11 0.01 0.25
4:41 pm 16:41 Cloudy 52 11.1 47 8.3 83 83 N 7 11 30.18 1022 8 13 0.01 0.25
4:53 pm 16:53 Cloudy 52 11.1 47 8.3 83 83 NNE 5 7 30.16 1021 9 14 0.01 0.25
5:53 pm 17:53 Mostly Cloudy 54 12.2 47 8.3 77 77 N 6 9 30.15 1021 10 16 0.00 0.00
6:01 pm 18:01 Mostly Cloudy 54 12.2 47 8.3 77 77 N 6 9 30.18 1022 10 16 0.00 0.00
6:53 pm 18:53 Cloudy 53 11.7 47 8.3 80 80 NE 7 11 30.14 1021 10 16 0.00 0.00
7:53 pm 19:53 Sunny 53 11.7 48 8.9 83 83 ENE 3 6 30.14 1021 10 16 0.00 0.00
8:53 pm 20:53 Clear 51 10.6 47 8.3 86 86 Calm 30.14 1021 10 16 0.00 0.00
9:53 pm 21:53 Clear 50 10 47 8.3 89 89 E 6 9 30.14 1021 10 16 0.00 0.00
10:53 pm 22:53 Clear with Mist and Fog 50 10 47 8.3 89 89 SSE 6 9 30.16 1021 5 8 0.00 0.00
11:53 pm 23:53 Mostly Clear with Mist and Fog 50 10 48 8.9 93 93 Calm 30.16 1022 4 6 0.00 0.00

Powered by AerisWeather